This demonstration page uses our WeatherBlox Daily Observations layout. Learn more.

Left ArrowRight Arrow

39.08367, -84.50855

Hourly Observations for November 5, 2015

Temp ( °F °C ) Dew Point ( °F °C ) Humidity (%) Winds ( mph kmh ) Pressure ( in mb ) Visibility ( mi km ) Precip ( " mm )
12:00 am 00:00 Mostly Cloudy with Fog 55 13 55 13 100 100 Calm 30.15 1021 0 0 0.00 0.00
12:07 am 00:07 Mostly Cloudy with Fog 55 12.8 55 12.8 100 100 Calm 30.15 1021 0 0 0.00 0.00
12:14 am 00:14 Mostly Cloudy with Fog 55 13 55 13 100 100 Calm 30.15 1021 1 1 0.00 0.00
12:19 am 00:19 Mostly Cloudy with Mist and Fog 55 12.8 55 12.8 100 100 Calm 30.15 1021 1 2 0.00 0.00
12:25 am 00:25 Mostly Clear with Mist and Fog 55 12.8 55 12.8 100 100 Calm 30.15 1021 2 3 0.00 0.00
12:34 am 00:34 Mostly Cloudy with Mist and Fog 54 12 54 12 100 100 Calm 30.15 1021 1 2 0.00 0.00
12:41 am 00:41 Mostly Cloudy with Fog 53 11.7 53 11.7 100 100 Calm 30.18 1022 1 1 0.00 0.00
12:50 am 00:50 Mostly Cloudy with Fog 54 12 54 12 100 100 Calm 30.15 1021 0 0 0.00 0.00
12:53 am 00:53 Mostly Cloudy with Fog 53 11.7 53 11.7 100 100 Calm 30.16 1021 0 0 0.00 0.00
1:34 am 01:34 Cloudy with Fog 54 12 54 12 100 100 Calm 30.18 1022 1 1 0.00 0.00
1:53 am 01:53 Cloudy with Fog 53 11.7 53 11.7 100 100 Calm 30.16 1021 1 1 0.00 0.00
2:01 am 02:01 Cloudy with Mist and Fog 54 12.2 54 12.2 100 100 Calm 30.18 1022 1 1 0.00 0.00
2:09 am 02:09 Cloudy with Mist and Fog 54 12.2 54 12.2 100 100 Calm 30.18 1022 1 2 0.00 0.00
2:17 am 02:17 Cloudy with Fog 55 12.8 55 12.8 100 100 Calm 30.18 1022 1 1 0.00 0.00
2:31 am 02:31 Cloudy with Mist and Fog 55 12.8 55 12.8 100 100 Calm 30.18 1022 1 2 0.00 0.00
2:53 am 02:53 Mostly Cloudy with Mist and Fog 55 12.8 55 12.8 100 100 Calm 30.16 1022 5 8 0.00 0.00
3:53 am 03:53 Cloudy 57 13.9 57 13.9 100 100 Calm 30.16 1021 9 14 0.00 0.00
4:53 am 04:53 Cloudy 57 13.9 57 13.9 100 100 Calm 30.17 1022 8 13 0.00 0.00
5:53 am 05:53 Cloudy 57 13.9 57 13.9 100 100 Calm 30.18 1022 10 16 0.00 0.00
6:53 am 06:53 Cloudy 57 13.9 57 13.9 100 100 Calm 30.18 1022 9 14 0.00 0.00
7:53 am 07:53 Cloudy 58 14.4 58 14.4 100 100 Calm 30.19 1023 10 16 0.00 0.00
8:53 am 08:53 Cloudy 61 16.1 60 15.6 97 97 Calm 30.21 1023 10 16 0.00 0.00
9:53 am 09:53 Cloudy 65 18.3 62 16.7 90 90 Calm 30.20 1023 10 16 0.00 0.00
10:53 am 10:53 Cloudy 68 20 62 16.7 81 81 S 5 7 30.19 1022 10 16 0.00 0.00
11:53 am 11:53 Cloudy 71 21.7 63 17.2 76 76 SE 5 7 30.15 1021 10 16 0.00 0.00
12:53 pm 12:53 Cloudy 73 22.8 62 16.7 69 69 S 7 11 30.13 1020 10 16 0.00 0.00
1:53 pm 13:53 Cloudy 74 23.3 60 15.6 62 62 S 12 19 30.11 1020 10 16 0.00 0.00
2:53 pm 14:53 Mostly Cloudy 73 22.8 58 14.4 59 59 SSW 9 15 30.09 1019 10 16 0.00 0.00
3:53 pm 15:53 Partly Cloudy 74 23.3 59 15 60 60 S 7 11 30.07 1018 10 16 0.00 0.00
4:53 pm 16:53 Mostly Cloudy 71 21.7 58 14.4 63 63 S 6 9 30.07 1018 10 16 0.00 0.00
5:53 pm 17:53 Partly Cloudy 69 20.6 58 14.4 68 68 SSE 5 7 30.06 1018 10 16 0.00 0.00
6:53 pm 18:53 Clear 68 20 58 14.4 70 70 S 5 7 30.04 1017 10 16 0.00 0.00
7:53 pm 19:53 Clear 67 19.4 58 14.4 73 73 S 3 6 30.03 1017 10 16 0.00 0.00
8:53 pm 20:53 Clear 65 18.3 58 14.4 78 78 SW 6 9 30.02 1017 10 16 0.00 0.00
9:53 pm 21:53 Mostly Cloudy 64 17.8 59 15 84 84 Calm 29.99 1016 10 16 0.00 0.00
10:53 pm 22:53 Clear 63 17.2 59 15 87 87 SW 5 7 29.98 1015 10 16 0.00 0.00
11:53 pm 23:53 Cloudy with Light Rain 65 18.3 61 16.1 87 87 SSW 7 11 29.97 1015 10 16 0.01 0.25

Powered by AerisWeather